• In Russia
  • List of Countries
  • For 7 days
  • Water Temperature
  • Satellite Maps
  • Weather Map
  • Weather Widgets
  • user-avatar
    Login

    Hourly Weather Cirnatseni

    Today, 21 February, Thursday

    Time Temperature Precipitation Wind Pressure Humidity
    00:00 +4°C° 0 mm 3 mps 751 mmHg 75%
    01:00 +3°C° 0 mm 4 mps 751 mmHg 77%
    02:00 +2°C° 0 mm 3 mps 751 mmHg 81%
    03:00 +2°C° 0 mm 3 mps 751 mmHg 80%
    04:00 +1°C° 0 mm 4 mps 752 mmHg 78%
    05:00 +1°C° 0 mm 4 mps 752 mmHg 77%
    06:00 +1°C° 0 mm 5 mps 752 mmHg 76%
    07:00 +1°C° 0 mm 5 mps 752 mmHg 74%
    08:00 +2°C° 0 mm 6 mps 752 mmHg 71%
    09:00 +3°C° 0 mm 7 mps 752 mmHg 65%
    10:00 +4°C° 0 mm 7 mps 752 mmHg 59%
    11:00 +5°C° 0 mm 8 mps 753 mmHg 53%
    12:00 +5°C° 0 mm 8 mps 753 mmHg 52%
    13:00 +6°C° 0 mm 8 mps 752 mmHg 51%
    14:00 +6°C° 0 mm 8 mps 752 mmHg 50%
    15:00 +6°C° 0 mm 8 mps 752 mmHg 51%
    16:00 +5°C° 0 mm 7 mps 752 mmHg 53%
    17:00 +5°C° 0 mm 7 mps 752 mmHg 54%
    18:00 +4°C° 0 mm 6 mps 752 mmHg 58%
    19:00 +5°C° 0 mm 4 mps 753 mmHg 62%
    20:00 +4°C° 0 mm 3 mps 753 mmHg 66%
    21:00 +4°C° 0 mm 3 mps 752 mmHg 67%
    22:00 +4°C° 0 mm 3 mps 752 mmHg 68%
    23:00 +4°C° 0 mm 4 mps 752 mmHg 69%

    Tomorrow, 22 February, Friday

    Time Temperature Precipitation Wind Pressure Humidity
    00:00 +4°C° 0.1 mm 3 mps 752 mmHg 70%
    01:00 +4°C° 0.1 mm 3 mps 752 mmHg 70%
    02:00 +4°C° 0.1 mm 3 mps 751 mmHg 70%
    03:00 +4°C° 0.2 mm 3 mps 751 mmHg 70%
    04:00 +4°C° 0.2 mm 4 mps 750 mmHg 70%
    05:00 +4°C° 0.2 mm 4 mps 750 mmHg 70%
    06:00 +3°C° 0.4 mm 3 mps 749 mmHg 71%
    07:00 +3°C° 0.4 mm 3 mps 749 mmHg 73%
    08:00 +4°C° 0.4 mm 2 mps 749 mmHg 74%
    09:00 +3°C° 0.4 mm 3 mps 749 mmHg 76%
    10:00 +3°C° 0.4 mm 3 mps 749 mmHg 77%
    11:00 +3°C° 0.4 mm 4 mps 749 mmHg 79%
    12:00 -1°C° 0.7 mm 6 mps 749 mmHg 81%
    13:00 -3°C° 0.7 mm 7 mps 750 mmHg 84%
    14:00 -6°C° 0.7 mm 9 mps 750 mmHg 87%
    15:00 -8°C° 0.4 mm 9 mps 751 mmHg 84%
    16:00 -7°C° 0.4 mm 8 mps 752 mmHg 81%
    17:00 -7°C° 0.4 mm 8 mps 753 mmHg 79%
    18:00 -8°C° 0 mm 8 mps 753 mmHg 74%
    19:00 -8°C° 0 mm 8 mps 754 mmHg 69%
    20:00 -10°C° 0 mm 8 mps 755 mmHg 65%
    21:00 -10°C° 0 mm 8 mps 756 mmHg 65%
    22:00 -11°C° 0 mm 7 mps 756 mmHg 66%
    23:00 -11°C° 0 mm 7 mps 756 mmHg 67%

    Day after tomorrow, 23 February, Saturday

    Time Temperature Precipitation Wind Pressure Humidity
    00:00 -12°C° 0 mm 7 mps 757 mmHg 67%
    01:00 -12°C° 0 mm 7 mps 757 mmHg 67%
    02:00 -12°C° 0 mm 7 mps 757 mmHg 67%
    03:00 -12°C° 0 mm 7 mps 757 mmHg 66%
    04:00 -12°C° 0 mm 7 mps 757 mmHg 66%
    05:00 -12°C° 0 mm 7 mps 758 mmHg 66%
    06:00 -12°C° 0 mm 7 mps 758 mmHg 67%
    07:00 -12°C° 0 mm 8 mps 759 mmHg 67%
    08:00 -11°C° 0 mm 8 mps 760 mmHg 67%
    09:00 -11°C° 0 mm 8 mps 760 mmHg 65%
    10:00 -10°C° 0 mm 8 mps 760 mmHg 63%
    11:00 -10°C° 0 mm 8 mps 760 mmHg 60%
    12:00 -8°C° 0 mm 8 mps 761 mmHg 60%
    13:00 -8°C° 0 mm 7 mps 761 mmHg 60%
    14:00 -8°C° 0 mm 7 mps 761 mmHg 60%
    15:00 -8°C° 0 mm 7 mps 761 mmHg 62%
    16:00 -8°C° 0 mm 7 mps 761 mmHg 63%
    17:00 -9°C° 0 mm 7 mps 761 mmHg 64%
    18:00 -9°C° 0 mm 6 mps 762 mmHg 66%
    19:00 -9°C° 0 mm 6 mps 762 mmHg 68%
    20:00 -9°C° 0 mm 6 mps 762 mmHg 70%
    21:00 -10°C° 0 mm 6 mps 763 mmHg 71%
    22:00 -10°C° 0 mm 6 mps 763 mmHg 72%
    23:00 -10°C° 0 mm 5 mps 763 mmHg 72%

    24 February, Sunday

    Time Temperature Precipitation Wind Pressure Humidity
    00:00 -10°C° 0 mm 5 mps 763 mmHg 73%
    01:00 -11°C° 0 mm 5 mps 763 mmHg 74%
    02:00 -10°C° 0 mm 4 mps 763 mmHg 75%
    03:00 -10°C° 0 mm 4 mps 763 mmHg 76%
    04:00 -10°C° 0 mm 4 mps 762 mmHg 77%
    05:00 -11°C° 0 mm 5 mps 762 mmHg 78%
    06:00 -10°C° 0 mm 4 mps 763 mmHg 76%
    07:00 -10°C° 0 mm 4 mps 763 mmHg 74%
    08:00 -10°C° 0 mm 4 mps 763 mmHg 73%
    09:00 -9°C° 0 mm 4 mps 763 mmHg 70%
    10:00 -8°C° 0 mm 4 mps 764 mmHg 68%
    11:00 -7°C° 0 mm 4 mps 764 mmHg 65%
    12:00 -7°C° 0 mm 4 mps 764 mmHg 65%
    13:00 -5°C° 0 mm 4 mps 763 mmHg 65%
    14:00 -5°C° 0 mm 4 mps 763 mmHg 65%
    15:00 -5°C° 0 mm 4 mps 763 mmHg 66%
    16:00 -5°C° 0 mm 3 mps 763 mmHg 68%
    17:00 -5°C° 0 mm 3 mps 763 mmHg 69%
    18:00 -5°C° 0 mm 3 mps 763 mmHg 72%
    19:00 -5°C° 0 mm 2 mps 764 mmHg 75%
    20:00 -5°C° 0 mm 2 mps 764 mmHg 77%
    21:00 -5°C° 0 mm 2 mps 764 mmHg 76%
    22:00 -5°C° 0 mm 2 mps 764 mmHg 75%
    23:00 -5°C° 0 mm 2 mps 764 mmHg 74%

    25 February, Monday

    Time Temperature Precipitation Wind Pressure Humidity
    00:00 -5°C° 0 mm 2 mps 764 mmHg 73%
    01:00 -5°C° 0 mm 2 mps 764 mmHg 73%
    02:00 -5°C° 0 mm 2 mps 764 mmHg 72%
    03:00 -5°C° 0 mm 2 mps 764 mmHg 72%
    04:00 -5°C° 0 mm 2 mps 764 mmHg 72%
    05:00 -5°C° 0 mm 2 mps 763 mmHg 73%
    06:00 -5°C° 0 mm 2 mps 763 mmHg 72%
    07:00 -5°C° 0 mm 2 mps 763 mmHg 72%
    08:00 -4°C° 0 mm 2 mps 763 mmHg 71%
    09:00 -4°C° 0 mm 3 mps 763 mmHg 67%
    10:00 -1°C° 0 mm 3 mps 762 mmHg 63%
    11:00 0°C° 0 mm 3 mps 762 mmHg 59%
    12:00 0°C° 0 mm 4 mps 762 mmHg 57%
    13:00 +1°C° 0 mm 4 mps 761 mmHg 55%
    14:00 +1°C° 0 mm 5 mps 760 mmHg 54%
    15:00 +1°C° 0 mm 4 mps 760 mmHg 57%
    16:00 0°C° 0 mm 4 mps 759 mmHg 60%
    17:00 +1°C° 0 mm 3 mps 758 mmHg 63%
    18:00 0°C° 0 mm 3 mps 758 mmHg 66%
    19:00 -1°C° 0 mm 4 mps 758 mmHg 68%
    20:00 -2°C° 0 mm 4 mps 757 mmHg 71%
    21:00 -2°C° 0 mm 4 mps 757 mmHg 73%
    22:00 -2°C° 0 mm 4 mps 757 mmHg 76%
    23:00 -2°C° 0 mm 4 mps 756 mmHg 78%

    26 February, Tuesday

    Time Temperature Precipitation Wind Pressure Humidity
    00:00 -2°C° 0 mm 5 mps 756 mmHg 82%
    01:00 -2°C° 0 mm 5 mps 755 mmHg 86%
    02:00 -4°C° 0 mm 5 mps 755 mmHg 90%
    03:00 -2°C° 0 mm 5 mps 754 mmHg 90%
    04:00 -3°C° 0 mm 6 mps 754 mmHg 89%
    05:00 -3°C° 0 mm 6 mps 754 mmHg 89%
    06:00 -3°C° 0 mm 6 mps 754 mmHg 88%
    07:00 -3°C° 0 mm 6 mps 753 mmHg 87%
    08:00 -3°C° 0 mm 6 mps 753 mmHg 86%
    09:00 -2°C° 0 mm 6 mps 753 mmHg 80%
    10:00 +1°C° 0 mm 6 mps 752 mmHg 74%
    11:00 +2°C° 0 mm 6 mps 752 mmHg 69%
    12:00 +2°C° 0 mm 6 mps 751 mmHg 68%
    13:00 +3°C° 0 mm 6 mps 750 mmHg 68%
    14:00 +3°C° 0 mm 5 mps 749 mmHg 67%
    15:00 +3°C° 0 mm 5 mps 748 mmHg 69%
    16:00 +4°C° 0 mm 4 mps 747 mmHg 71%
    17:00 +4°C° 0 mm 4 mps 746 mmHg 72%
    18:00 +3°C° 0 mm 4 mps 746 mmHg 75%
    19:00 +3°C° 0 mm 4 mps 745 mmHg 78%
    20:00 +1°C° 0 mm 4 mps 744 mmHg 81%
    21:00 +1°C° 0 mm 6 mps 743 mmHg 81%
    22:00 0°C° 0 mm 7 mps 743 mmHg 81%
    23:00 +1°C° 0 mm 8 mps 742 mmHg 81%
    Show more